Weather History for KCSM - March, 2014

Change the Weather History Date:

Sunday, March 30, 2014

  Actual Average Record
Temperature  
Mean Temperature 62 °F -  
Max Temperature 79 °F 63 °F 82 °F (2008)
Min Temperature 48 °F 41 °F 28 °F (2003)
Degree Days  
Heating Degree Days 2    
Growing Degree Days 12 (Base 50)    
Moisture  
Dew Point 34 °F    
Average Humidity 36    
Maximum Humidity 52    
Minimum Humidity 21    
Precipitation  
Precipitation 0.00 in - - ()
Sea Level Pressure  
Sea Level Pressure 29.94 in    
Wind  
Wind Speed 23 mph (South)    
Max Wind Speed 33 mph    
Max Gust Speed 44 mph    
Visibility 10 miles    
Events      
Averages and records for this station are not official NWS values.
T = Trace of Precipitation, MM = Missing Value Source: NWS Daily Summary

Daily Weather History Graph

Daily Weather History Graph

Search for Another Location

Airport or City:

Trip Planner

Search our weather history database for the weather conditions in past years. The results will help you decide how hot, cold, wet, or windy it might be!

Date:

Astronomy

Mar. 30, 2014 Rise Set
Actual Time 7:26 AM CDT 7:56 PM CDT
Civil Twilight 7:00 AM CDT 8:22 PM CDT
Nautical Twilight 6:30 AM CDT 8:52 PM CDT
Astronomical Twilight 6:00 AM CDT 9:23 PM CDT
Moon 7:12 AM CDT (3/30) 8:09 PM CDT (3/30)
Length of Visible Light 13h 21m
Length of Day
12h 30m
Waning Crescent, 0% of the Moon is Illuminated
Mar 30
Waning Crescent
Mar 30
New
Apr 7
First Quarter
Apr 15
Full
Apr 22
Last Quarter

Hourly Weather History & Observations

Time (CDT) Temp. Dew Point Humidity Pressure Visibility Wind Dir Wind Speed Gust Speed Precip Events Conditions
12:53 AM 54.0 °F 30.9 °F 41% 30.12 in 10.0 mi SSE 18.4 mph - N/A   Clear
1:53 AM 51.1 °F 30.9 °F 46% 30.12 in 10.0 mi SSE 17.3 mph - N/A   Clear
2:53 AM 51.1 °F 30.9 °F 46% 30.09 in 10.0 mi South 16.1 mph - N/A   Clear
3:53 AM 52.0 °F 32.0 °F 47% 30.07 in 10.0 mi South 23.0 mph - N/A   Clear
4:53 AM 51.1 °F 30.9 °F 46% 30.07 in 10.0 mi South 19.6 mph - N/A   Clear
5:53 AM 51.1 °F 28.9 °F 43% 30.06 in 10.0 mi South 21.9 mph - N/A   Clear
6:53 AM 48.9 °F 30.9 °F 50% 30.06 in 10.0 mi South 18.4 mph - N/A   Clear
7:53 AM 48.9 °F 32.0 °F 52% 30.06 in 10.0 mi South 21.9 mph - N/A   Clear
8:53 AM 51.1 °F 34.0 °F 52% 30.07 in 10.0 mi South 20.7 mph - N/A   Clear
9:53 AM 55.0 °F 36.0 °F 49% 30.07 in 10.0 mi South 24.2 mph 29.9 mph N/A   Clear
10:53 AM 64.0 °F 34.0 °F 33% 30.04 in 10.0 mi South 33.4 mph 39.1 mph N/A   Clear
11:53 AM 66.0 °F 35.1 °F 32% 30.01 in 10.0 mi South 31.1 mph 43.7 mph N/A   Clear
12:53 PM 70.0 °F 37.9 °F 31% 29.96 in 10.0 mi South 31.1 mph 41.4 mph N/A   Clear
1:53 PM 73.0 °F 37.9 °F 28% 29.92 in 10.0 mi South 33.4 mph 43.7 mph N/A   Clear
2:53 PM 75.0 °F 37.0 °F 25% 29.88 in 10.0 mi South 32.2 mph 39.1 mph N/A   Clear
3:53 PM 77.0 °F 35.1 °F 22% 29.84 in 10.0 mi South 28.8 mph 39.1 mph N/A   Clear
4:53 PM 77.0 °F 34.0 °F 21% 29.81 in 10.0 mi South 29.9 mph 39.1 mph N/A   Clear
5:53 PM 75.9 °F 36.0 °F 23% 29.78 in 10.0 mi South 26.5 mph 35.7 mph N/A   Clear
6:53 PM 75.0 °F 33.1 °F 22% 29.77 in 10.0 mi SSE 25.3 mph 32.2 mph N/A   Clear
7:53 PM 72.0 °F 33.1 °F 24% 29.75 in 10.0 mi SSE 21.9 mph 29.9 mph N/A   Clear
8:53 PM 70.0 °F 32.0 °F 25% 29.76 in 10.0 mi SSE 23.0 mph 29.9 mph N/A   Clear
9:53 PM 66.9 °F 33.1 °F 28% 29.77 in 10.0 mi SSE 26.5 mph 33.4 mph N/A   Clear
10:53 PM 64.9 °F 34.0 °F 32% 29.76 in 10.0 mi SSE 26.5 mph 33.4 mph N/A   Clear
11:53 PM 63.0 °F 37.0 °F 38% 29.75 in 10.0 mi SSE 26.5 mph - N/A   Clear